Ithaca, NY

7:04 AM EDT on October 21, 2017 (GMT -0400)
Tompkins County

Weather History for KITH - October, 2013

Change the Weather History Date:

Monday, October 7, 2013

  Actual Average Record
Temperature  
Mean Temperature 58 °F -  
Max Temperature 72 °F 62 °F 87 °F (1941)
Min Temperature 46 °F 40 °F 24 °F (1964)
Degree Days  
Heating Degree Days 7    
Growing Degree Days 8 (Base 50)    
Moisture  
Dew Point 56 °F    
Average Humidity 80    
Maximum Humidity 93    
Minimum Humidity 60    
Precipitation  
Precipitation 0.44 in - - ()
Sea Level Pressure  
Sea Level Pressure 29.82 in    
Wind  
Wind Speed 14 mph (SSW)    
Max Wind Speed 20 mph    
Max Gust Speed 37 mph    
Visibility 9 miles    
Events Rain    
Averages and records for this station are not official NWS values.
T = Trace of Precipitation, MM = Missing Value Source: NWS Daily Summary

Daily Weather History Graph

Daily Weather History Graph

Search for Another Location

Airport or City:

Trip Planner

Search our weather history database for the weather conditions in past years. The results will help you decide how hot, cold, wet, or windy it might be!

Date:

Astronomy

Oct. 07, 2013 Rise Set
Actual Time 7:09 AM EDT 6:36 PM EDT
Civil Twilight 6:41 AM EDT 7:04 PM EDT
Nautical Twilight 6:09 AM EDT 7:37 PM EDT
Astronomical Twilight 5:36 AM EDT 8:09 PM EDT
Moon 10:01 AM EDT (10/7) 8:15 PM EDT (10/7)
Length of Visible Light 12h 22m
Length of Day
11h 26m
Waxing Crescent, 8% of the Moon is Illuminated
Oct 7
Waxing Crescent
Oct 11
First Quarter
Oct 18
Full
Oct 26
Last Quarter
Nov 3
New

Hourly Weather History & Observations

Time (EDT) Temp. Dew Point Humidity Pressure Visibility Wind Dir Wind Speed Gust Speed Precip Events Conditions
12:33 AM 69.8 °F 62.6 °F 78% 29.89 in 10.0 mi South 15.0 mph 20.7 mph N/A   Mostly Cloudy
12:41 AM 69.8 °F 62.6 °F 78% 29.88 in 10.0 mi SSE 13.8 mph - N/A   Mostly Cloudy
12:56 AM 68.9 °F 63.0 °F 81% 29.86 in 10.0 mi SSE 16.1 mph 21.9 mph N/A   Mostly Cloudy
1:56 AM 68.9 °F 63.0 °F 81% 29.83 in 10.0 mi South 16.1 mph 27.6 mph N/A   Partly Cloudy
2:56 AM 68.9 °F 61.9 °F 78% 29.81 in 10.0 mi SSE 16.1 mph 23.0 mph N/A   Mostly Cloudy
3:56 AM 68.0 °F 61.9 °F 81% 29.78 in 10.0 mi SSE 15.0 mph 19.6 mph N/A   Scattered Clouds
4:56 AM 68.0 °F 63.0 °F 84% 29.76 in 10.0 mi South 19.6 mph 25.3 mph N/A   Partly Cloudy
5:56 AM 68.0 °F 63.0 °F 84% 29.76 in 10.0 mi South 17.3 mph - N/A   Clear
6:26 AM 68.0 °F 62.6 °F 83% 29.77 in 10.0 mi SSE 16.1 mph 20.7 mph N/A   Mostly Cloudy
6:56 AM 66.9 °F 61.9 °F 84% 29.75 in 10.0 mi South 16.1 mph 19.6 mph N/A   Scattered Clouds
7:56 AM 68.0 °F 61.9 °F 81% 29.74 in 7.0 mi SSE 16.1 mph 24.2 mph N/A   Scattered Clouds
8:56 AM 70.0 °F 63.0 °F 78% 29.70 in 8.0 mi SSE 16.1 mph 23.0 mph N/A   Scattered Clouds
9:56 AM 70.9 °F 61.9 °F 73% 29.69 in 10.0 mi South 18.4 mph 29.9 mph N/A   Mostly Cloudy
10:56 AM 70.9 °F 63.0 °F 76% 29.68 in 10.0 mi South 15.0 mph 19.6 mph 0.00 in Rain Light Rain Showers
11:05 AM 69.8 °F 62.6 °F 78% 29.73 in 9.0 mi NW 16.1 mph 36.8 mph 0.01 in Rain Rain
11:11 AM 64.4 °F 60.8 °F 88% 29.75 in 4.0 mi West 13.8 mph 36.8 mph 0.10 in Rain Heavy Rain
11:56 AM 57.9 °F 55.9 °F 93% 29.74 in 6.0 mi NW 9.2 mph - 0.34 in Rain Rain
12:56 PM 56.8 °F 54.9 °F 93% 29.75 in 10.0 mi WSW 8.1 mph - 0.07 in Rain Light Rain
1:56 PM 55.9 °F 54.0 °F 93% 29.76 in 5.0 mi SW 10.4 mph - 0.03 in Rain Light Rain
2:56 PM 54.9 °F 52.9 °F 93% 29.79 in 10.0 mi SSW 6.9 mph - 0.00 in Rain Light Rain
3:56 PM 59.0 °F 54.0 °F 83% 29.80 in 10.0 mi SW 10.4 mph - 0.00 in   Mostly Cloudy
4:56 PM 57.9 °F 48.9 °F 72% 29.84 in 10.0 mi West 10.4 mph - N/A   Mostly Cloudy
5:56 PM 57.9 °F 43.9 °F 60% 29.88 in 10.0 mi West 11.5 mph - N/A   Scattered Clouds
6:56 PM 54.0 °F 41.9 °F 64% 29.92 in 10.0 mi West 6.9 mph - N/A   Scattered Clouds
7:56 PM 52.9 °F 41.9 °F 66% 29.94 in 10.0 mi WSW 4.6 mph - N/A   Scattered Clouds
8:56 PM 50.9 °F 41.0 °F 69% 29.98 in 10.0 mi Calm Calm - N/A   Scattered Clouds
9:56 PM 46.9 °F 41.9 °F 83% 30.00 in 10.0 mi Calm Calm - N/A   Scattered Clouds
10:56 PM 48.9 °F 41.9 °F 77% 30.03 in 10.0 mi West 4.6 mph - N/A   Overcast
11:56 PM 50.0 °F 45.0 °F 83% 30.05 in 10.0 mi NW 11.5 mph - N/A   Scattered Clouds